Date,TemperatureHighF,TemperatureAvgF,TemperatureLowF,DewpointHighF,DewpointAvgF,DewpointLowF,HumidityHigh,HumidityAvg,HumidityLow,PressureMaxIn,PressureMinIn,WindSpeedMaxMPH,WindSpeedAvgMPH,GustSpeedMaxMPH,PrecipitationSumIn
2013-2-1,70,59,48,53,44,36,74,58,37,30.31,30.19,8,3,15,0.00
2013-2-2,75,63,51,56,51,40,85,67,51,30.28,30.13,6,2,11,0.00
2013-2-3,72,62,54,55,49,39,86,66,34,30.19,30.07,6,2,9,0.00
2013-2-4,77,61,48,53,45,34,84,58,34,30.13,30.03,5,2,9,0.00
2013-2-5,82,67,52,62,51,40,78,57,34,30.11,30.01,8,2,9,0.00
2013-2-6,80,70,60,69,63,58,93,79,67,30.12,30.02,13,4,14,0.00
2013-2-7,80,74,70,69,66,63,84,75,66,30.09,29.92,12,5,16,0.00
2013-2-8,83,72,65,66,64,62,93,77,53,30.06,29.89,8,3,11,0.00
2013-2-9,76,70,62,65,62,59,93,76,64,30.19,30.05,11,4,14,0.00
2013-2-10,75,71,68,63,61,59,77,71,61,30.28,30.17,18,8,19,0.00
2013-2-11,80,74,68,67,64,62,82,73,59,30.23,30.10,11,6,19,0.00
2013-2-12,86,74,67,71,67,62,91,80,44,30.12,29.96,10,4,12,0.00
2013-2-13,87,76,69,72,68,61,96,76,51,29.99,29.84,13,5,21,0.00
2013-2-14,74,67,61,69,63,59,97,88,73,30.05,29.93,15,3,15,1.02
2013-2-15,67,63,61,63,61,60,97,93,85,30.05,29.95,9,2,15,0.05
2013-2-16,70,62,51,61,52,39,97,73,40,30.07,29.89,12,4,22,0.01
2013-2-17,58,50,41,40,28,19,67,44,24,30.33,30.07,10,4,19,0.00
2013-2-18,69,58,44,54,42,27,73,57,48,30.35,30.23,16,4,19,0.00
2013-2-19,82,71,64,60,58,53,82,64,40,30.23,30.07,14,4,17,0.00
2013-2-20,81,68,60,66,62,57,96,82,60,30.13,30.03,5,3,9,0.00
2013-2-21,84,72,62,70,67,61,97,85,62,30.11,30.01,8,3,10,0.00
2013-2-22,80,74,70,72,70,68,93,87,76,30.11,30.02,10,4,14,0.00
2013-2-23,88,76,70,72,70,64,94,82,47,30.05,29.89,12,4,14,0.08
2013-2-24,89,74,68,73,69,67,97,86,52,29.98,29.90,8,3,13,0.00
2013-2-25,86,76,72,73,71,68,96,86,56,29.92,29.80,11,4,16,0.00
2013-2-26,86,78,71,73,70,66,93,77,54,29.87,29.76,15,6,26,0.00
2013-2-27,81,70,63,67,63,59,95,80,47,29.97,29.86,8,3,9,0.00
2013-2-28,77,64,55,61,51,43,90,66,36,30.01,29.88,8,3,13,0.00